Time,TemperatureF,DewpointF,PressureIn,WindDirection,WindDirectionDegrees,WindSpeedMPH,WindSpeedGustMPH,Humidity,HourlyPrecipIn,Conditions,Clouds,dailyrainin,SoftwareType,DateUTC
2013-08-23 00:02:00,66.9,63.5,30.07,SE,145,0.0,0.0,89,0.00,,,0.04,meteohub,2013-08-23 04:02:00,
2013-08-23 00:07:00,66.9,63.5,30.07,ESE,122,0.0,0.0,89,0.00,,,0.04,meteohub,2013-08-23 04:07:00,
2013-08-23 00:12:00,66.7,63.3,30.04,ESE,122,0.0,0.0,89,0.00,,,0.00,meteohub,2013-08-23 04:12:00,
2013-08-23 00:17:00,66.7,63.3,30.04,ESE,122,0.0,0.0,89,0.00,,,0.00,meteohub,2013-08-23 04:17:00,
2013-08-23 00:22:00,66.7,63.3,30.04,ESE,122,0.0,0.0,89,0.00,,,0.00,meteohub,2013-08-23 04:22:00,
2013-08-23 00:27:00,66.6,63.1,30.04,ESE,122,0.0,0.0,89,0.00,,,0.00,meteohub,2013-08-23 04:27:00,
2013-08-23 00:32:00,66.6,63.1,30.04,ESE,122,0.0,0.0,89,0.00,,,0.00,meteohub,2013-08-23 04:32:00,
2013-08-23 00:37:00,66.6,63.5,30.04,East,100,0.0,0.0,90,0.00,,,0.00,meteohub,2013-08-23 04:37:00,
2013-08-23 00:42:00,66.4,63.3,30.04,East,100,0.0,0.0,90,0.00,,,0.00,meteohub,2013-08-23 04:42:00,
2013-08-23 00:47:00,66.4,63.3,30.04,East,100,0.0,0.0,90,0.00,,,0.00,meteohub,2013-08-23 04:47:00,
2013-08-23 00:52:00,66.2,63.1,30.04,SSW,212,0.0,0.0,90,0.00,,,0.00,meteohub,2013-08-23 04:52:00,
2013-08-23 00:57:00,66.0,63.0,30.07,SSE,168,0.0,0.0,90,0.00,,,0.00,meteohub,2013-08-23 04:57:00,
2013-08-23 01:02:00,65.8,62.8,30.07,SSE,168,0.0,2.0,90,0.00,,,0.00,meteohub,2013-08-23 05:02:00,
2013-08-23 01:07:00,66.0,63.3,30.07,SSE,168,0.0,3.0,91,0.00,,,0.00,meteohub,2013-08-23 05:07:00,
2013-08-23 01:12:00,66.0,63.3,30.07,SSE,168,0.0,3.0,91,0.00,,,0.00,meteohub,2013-08-23 05:12:00,
2013-08-23 01:17:00,65.8,63.1,30.04,SSE,168,0.0,3.0,91,0.00,,,0.00,meteohub,2013-08-23 05:17:00,
2013-08-23 01:22:00,65.8,63.1,30.04,SE,145,0.0,0.0,91,0.00,,,0.00,meteohub,2013-08-23 05:22:00,
2013-08-23 01:27:00,65.7,63.0,30.04,SSE,168,0.0,0.0,91,0.00,,,0.00,meteohub,2013-08-23 05:27:00,
2013-08-23 01:32:00,65.7,63.0,30.04,ESE,122,0.0,0.0,91,0.00,,,0.00,meteohub,2013-08-23 05:32:00,
2013-08-23 01:37:00,65.5,62.8,30.04,ENE,78,0.0,0.0,91,0.00,,,0.00,meteohub,2013-08-23 05:37:00,
2013-08-23 01:42:00,65.5,62.8,30.04,NE,55,0.0,0.0,91,0.00,,,0.00,meteohub,2013-08-23 05:42:00,
2013-08-23 01:47:00,65.3,62.6,30.04,NE,55,0.0,0.0,91,0.00,,,0.00,meteohub,2013-08-23 05:47:00,
2013-08-23 01:52:00,65.3,62.6,30.04,NE,55,0.0,0.0,91,0.00,,,0.00,meteohub,2013-08-23 05:52:00,
2013-08-23 01:57:00,65.3,62.6,30.04,NE,55,0.0,0.0,91,0.00,,,0.00,meteohub,2013-08-23 05:57:00,
2013-08-23 02:02:00,65.3,62.6,30.04,NE,55,0.0,0.0,91,0.00,,,0.00,meteohub,2013-08-23 06:02:00,
2013-08-23 02:07:00,65.3,62.6,30.04,NE,55,0.0,0.0,91,0.00,,,0.00,meteohub,2013-08-23 06:07:00,
2013-08-23 02:12:00,65.1,62.4,30.01,ENE,78,0.0,0.0,91,0.00,,,0.00,meteohub,2013-08-23 06:12:00,
2013-08-23 02:17:00,65.1,62.4,30.01,ENE,78,0.0,0.0,91,0.00,,,0.00,meteohub,2013-08-23 06:17:00,
2013-08-23 02:22:00,65.1,62.4,30.01,ENE,78,0.0,0.0,91,0.00,,,0.00,meteohub,2013-08-23 06:22:00,
2013-08-23 02:27:00,65.1,62.4,30.04,ENE,78,0.0,0.0,91,0.00,,,0.00,meteohub,2013-08-23 06:27:00,
2013-08-23 02:32:00,65.1,62.4,30.04,ENE,78,0.0,0.0,91,0.00,,,0.00,meteohub,2013-08-23 06:32:00,
2013-08-23 02:37:00,65.1,62.4,30.04,ENE,78,0.0,0.0,91,0.00,,,0.00,meteohub,2013-08-23 06:37:00,
2013-08-23 02:42:00,65.1,62.8,30.04,ENE,78,0.0,0.0,92,0.00,,,0.00,meteohub,2013-08-23 06:42:00,
2013-08-23 02:47:00,65.1,62.8,30.04,ENE,78,0.0,0.0,92,0.00,,,0.00,meteohub,2013-08-23 06:47:00,
2013-08-23 02:52:00,64.9,62.6,30.04,ENE,78,0.0,0.0,92,0.00,,,0.00,meteohub,2013-08-23 06:52:00,
2013-08-23 02:57:00,64.9,62.6,30.04,ENE,78,0.0,0.0,92,0.00,,,0.00,meteohub,2013-08-23 06:57:00,
2013-08-23 03:02:00,64.8,62.4,30.04,WSW,258,0.0,0.0,92,0.00,,,0.00,meteohub,2013-08-23 07:02:00,
2013-08-23 03:07:00,64.6,62.6,30.04,East,100,0.0,0.0,93,0.00,,,0.00,meteohub,2013-08-23 07:07:00,
2013-08-23 03:12:00,64.6,62.6,30.04,North,10,0.0,0.0,93,0.00,,,0.00,meteohub,2013-08-23 07:12:00,
2013-08-23 03:17:00,64.6,62.6,30.04,NNW,348,0.0,0.0,93,0.00,,,0.00,meteohub,2013-08-23 07:17:00,
2013-08-23 03:22:00,64.4,62.6,30.04,North,10,0.0,0.0,94,0.00,,,0.00,meteohub,2013-08-23 07:22:00,
2013-08-23 03:27:00,64.4,62.6,30.04,NNW,348,0.0,0.0,94,0.00,,,0.00,meteohub,2013-08-23 07:27:00,
2013-08-23 03:32:00,64.4,62.6,30.04,WNW,302,0.0,3.0,94,0.00,,,0.00,meteohub,2013-08-23 07:32:00,
2013-08-23 03:37:00,64.2,62.4,30.04,North,10,0.0,3.0,94,0.00,,,0.00,meteohub,2013-08-23 07:37:00,
2013-08-23 03:42:00,64.2,62.8,30.01,SSW,212,0.0,3.0,95,0.00,,,0.00,meteohub,2013-08-23 07:42:00,
2013-08-23 03:47:00,64.2,62.8,30.01,SSW,212,0.0,0.0,95,0.00,,,0.00,meteohub,2013-08-23 07:47:00,
2013-08-23 03:52:00,64.2,62.8,30.01,SSW,212,0.0,0.0,95,0.00,,,0.00,meteohub,2013-08-23 07:52:00,
2013-08-23 03:57:00,64.2,62.8,30.01,SSE,168,0.0,0.0,95,0.00,,,0.00,meteohub,2013-08-23 07:57:00,
2013-08-23 04:02:00,64.2,63.1,30.01,East,100,0.0,0.0,96,0.00,,,0.00,meteohub,2013-08-23 08:02:00,
2013-08-23 04:07:00,64.2,63.1,30.01,East,100,0.0,0.0,96,0.00,,,0.00,meteohub,2013-08-23 08:07:00,
2013-08-23 04:12:00,64.2,63.1,30.01,NNW,348,0.0,0.0,96,0.00,,,0.00,meteohub,2013-08-23 08:12:00,
2013-08-23 04:17:00,64.0,63.0,30.01,NW,325,0.0,0.0,96,0.00,,,0.00,meteohub,2013-08-23 08:17:00,
2013-08-23 04:22:00,64.0,63.0,30.01,NW,325,0.0,0.0,96,0.00,,,0.00,meteohub,2013-08-23 08:22:00,
2013-08-23 04:27:00,63.9,62.8,30.01,NW,325,0.0,0.0,96,0.00,,,0.00,meteohub,2013-08-23 08:27:00,
2013-08-23 04:32:00,63.9,62.8,30.01,NW,325,0.0,0.0,96,0.00,,,0.00,meteohub,2013-08-23 08:32:00,
2013-08-23 04:37:00,63.9,62.8,30.01,NNW,348,0.0,0.0,96,0.00,,,0.00,meteohub,2013-08-23 08:37:00,
2013-08-23 04:42:00,63.9,62.8,30.01,NNW,348,0.0,0.0,96,0.00,,,0.00,meteohub,2013-08-23 08:42:00,
2013-08-23 04:47:00,63.9,62.8,30.01,North,10,0.0,0.0,96,0.00,,,0.00,meteohub,2013-08-23 08:47:00,
2013-08-23 04:52:00,63.9,62.8,30.01,NW,325,0.0,0.0,96,0.00,,,0.00,meteohub,2013-08-23 08:52:00,
2013-08-23 04:57:00,63.9,62.8,30.04,NW,325,0.0,0.0,96,0.00,,,0.00,meteohub,2013-08-23 08:57:00,
2013-08-23 05:07:00,63.9,63.0,30.04,NW,325,0.0,0.0,97,0.00,,,0.00,meteohub,2013-08-23 09:07:00,
2013-08-23 05:12:00,63.7,62.8,30.01,NW,325,0.0,0.0,97,0.00,,,0.00,meteohub,2013-08-23 09:12:00,
2013-08-23 05:17:00,63.7,62.8,30.01,NW,325,0.0,0.0,97,0.00,,,0.00,meteohub,2013-08-23 09:17:00,
2013-08-23 05:22:00,63.7,62.8,30.01,NW,325,0.0,0.0,97,0.00,,,0.00,meteohub,2013-08-23 09:22:00,
2013-08-23 05:27:00,63.7,62.8,30.04,NW,325,0.0,0.0,97,0.00,,,0.00,meteohub,2013-08-23 09:27:00,
2013-08-23 05:32:00,63.7,62.8,30.04,NW,325,0.0,0.0,97,0.00,,,0.00,meteohub,2013-08-23 09:32:00,
2013-08-23 05:37:00,63.7,62.8,30.04,NW,325,0.0,0.0,97,0.00,,,0.00,meteohub,2013-08-23 09:37:00,
2013-08-23 05:42:00,63.7,62.8,30.04,NW,325,0.0,0.0,97,0.00,,,0.00,meteohub,2013-08-23 09:42:00,
2013-08-23 05:47:00,63.7,62.8,30.04,NW,325,0.0,0.0,97,0.00,,,0.00,meteohub,2013-08-23 09:47:00,
2013-08-23 05:52:00,63.5,62.6,30.04,NNW,348,0.0,0.0,97,0.00,,,0.00,meteohub,2013-08-23 09:52:00,
2013-08-23 05:57:00,63.5,62.6,30.01,NNW,348,0.0,0.0,97,0.00,,,0.00,meteohub,2013-08-23 09:57:00,
2013-08-23 06:02:00,63.5,62.6,30.01,WNW,302,0.0,0.0,97,0.00,,,0.00,meteohub,2013-08-23 10:02:00,
2013-08-23 06:07:00,63.5,62.6,30.01,WNW,302,0.0,0.0,97,0.00,,,0.00,meteohub,2013-08-23 10:07:00,
2013-08-23 06:12:00,63.5,62.6,30.04,NNE,32,0.0,0.0,97,0.00,,,0.00,meteohub,2013-08-23 10:12:00,
2013-08-23 06:17:00,63.5,62.6,30.04,NNW,348,3.0,0.0,97,0.00,,,0.00,meteohub,2013-08-23 10:17:00,
2013-08-23 06:22:00,63.3,62.4,30.04,NNW,348,2.0,4.0,97,0.00,,,0.00,meteohub,2013-08-23 10:22:00,
2013-08-23 06:27:00,63.3,62.4,30.01,North,10,0.0,4.0,97,0.00,,,0.00,meteohub,2013-08-23 10:27:00,
2013-08-23 06:32:00,63.3,62.4,30.01,West,280,0.0,4.0,97,0.00,,,0.00,meteohub,2013-08-23 10:32:00,
2013-08-23 06:37:00,63.3,62.8,30.01,NNW,348,0.0,2.0,98,0.00,,,0.00,meteohub,2013-08-23 10:37:00,
2013-08-23 06:42:00,63.3,62.8,30.04,North,10,0.0,0.0,98,0.00,,,0.00,meteohub,2013-08-23 10:42:00,
2013-08-23 06:47:00,63.3,62.8,30.04,NW,325,0.0,0.0,98,0.00,,,0.00,meteohub,2013-08-23 10:47:00,
2013-08-23 06:52:00,63.1,62.6,30.04,NNW,348,0.0,0.0,98,0.00,,,0.00,meteohub,2013-08-23 10:52:00,
2013-08-23 06:57:00,63.1,62.6,30.04,North,10,0.0,0.0,98,0.00,,,0.00,meteohub,2013-08-23 10:57:00,
2013-08-23 07:02:00,63.1,62.6,30.04,WNW,302,0.0,0.0,98,0.00,,,0.00,meteohub,2013-08-23 11:02:00,
2013-08-23 07:07:00,63.0,62.4,30.04,North,10,0.0,4.0,98,0.00,,,0.00,meteohub,2013-08-23 11:07:00,
2013-08-23 07:12:00,63.1,62.6,30.04,NNW,348,0.0,4.0,98,0.00,,,0.00,meteohub,2013-08-23 11:12:00,
2013-08-23 07:17:00,63.1,62.6,30.04,NNW,348,0.0,2.0,98,0.00,,,0.00,meteohub,2013-08-23 11:17:00,
2013-08-23 07:22:00,63.1,62.6,30.04,WNW,302,0.0,0.0,98,0.00,,,0.00,meteohub,2013-08-23 11:22:00,
2013-08-23 07:27:00,63.1,62.6,30.04,WNW,302,0.0,2.0,98,0.00,,,0.00,meteohub,2013-08-23 11:27:00,
2013-08-23 07:32:00,63.1,62.6,30.04,WNW,302,0.0,2.0,98,0.00,,,0.00,meteohub,2013-08-23 11:32:00,
2013-08-23 07:37:00,63.1,62.6,30.04,West,280,0.0,2.0,98,0.00,,,0.00,meteohub,2013-08-23 11:37:00,
2013-08-23 07:42:00,63.5,63.0,30.04,South,190,0.0,0.0,98,0.00,,,0.00,meteohub,2013-08-23 11:42:00,
2013-08-23 07:47:00,63.3,62.8,30.04,NNW,348,3.0,0.0,98,0.00,,,0.00,meteohub,2013-08-23 11:47:00,
2013-08-23 07:52:00,63.3,62.8,30.04,North,10,0.0,5.0,98,0.00,,,0.00,meteohub,2013-08-23 11:52:00,
2013-08-23 07:57:00,63.3,62.8,30.04,NNW,348,0.0,5.0,98,0.00,,,0.00,meteohub,2013-08-23 11:57:00,
2013-08-23 08:02:00,63.3,62.8,30.04,North,10,0.0,3.0,98,0.00,,,0.00,meteohub,2013-08-23 12:02:00,
2013-08-23 08:07:00,63.5,63.0,30.04,NNW,348,0.0,2.0,98,0.00,,,0.00,meteohub,2013-08-23 12:07:00,
2013-08-23 08:12:00,63.3,62.8,30.04,South,190,5.0,5.0,98,0.00,,,0.00,meteohub,2013-08-23 12:12:00,
2013-08-23 08:17:00,63.3,62.8,30.04,ESE,122,3.0,6.0,98,0.00,,,0.00,meteohub,2013-08-23 12:17:00,
2013-08-23 08:22:00,63.5,63.0,30.04,NW,325,0.0,9.0,98,0.00,,,0.00,meteohub,2013-08-23 12:22:00,
2013-08-23 08:27:00,63.5,63.0,30.04,SE,145,0.0,9.0,98,0.00,,,0.00,meteohub,2013-08-23 12:27:00,
2013-08-23 08:32:00,63.7,63.1,30.04,SE,145,0.0,4.0,98,0.00,,,0.00,meteohub,2013-08-23 12:32:00,
2013-08-23 08:37:00,63.9,63.3,30.04,East,100,0.0,0.0,98,0.00,,,0.00,meteohub,2013-08-23 12:37:00,
2013-08-23 08:42:00,63.7,63.1,30.04,WNW,302,0.0,0.0,98,0.00,,,0.00,meteohub,2013-08-23 12:42:00,
2013-08-23 08:47:00,63.9,63.3,30.04,North,10,0.0,0.0,98,0.00,,,0.00,meteohub,2013-08-23 12:47:00,
2013-08-23 08:52:00,63.9,63.3,30.04,SE,145,0.0,0.0,98,0.00,,,0.00,meteohub,2013-08-23 12:52:00,
2013-08-23 08:57:00,64.2,63.7,30.04,ESE,122,0.0,0.0,98,0.00,,,0.00,meteohub,2013-08-23 12:57:00,
2013-08-23 09:02:00,64.6,64.0,30.04,ESE,122,0.0,0.0,98,0.00,,,0.00,meteohub,2013-08-23 13:02:00,
2013-08-23 09:07:00,64.9,64.4,30.04,North,10,0.0,0.0,98,0.00,,,0.00,meteohub,2013-08-23 13:07:00,
2013-08-23 09:12:00,65.1,64.6,30.07,WNW,302,0.0,2.0,98,0.00,,,0.00,meteohub,2013-08-23 13:12:00,
2013-08-23 09:17:00,65.5,64.9,30.07,ENE,78,0.0,2.0,98,0.00,,,0.00,meteohub,2013-08-23 13:17:00,
2013-08-23 09:22:00,65.8,65.3,30.07,North,10,0.0,2.0,98,0.00,,,0.00,meteohub,2013-08-23 13:22:00,
2013-08-23 09:27:00,66.0,65.5,30.04,NNW,348,0.0,2.0,98,0.00,,,0.00,meteohub,2013-08-23 13:27:00,
2013-08-23 09:32:00,66.4,65.8,30.04,North,10,0.0,4.0,98,0.00,,,0.00,meteohub,2013-08-23 13:32:00,
2013-08-23 09:37:00,66.6,66.0,30.04,North,10,0.0,4.0,98,0.00,,,0.00,meteohub,2013-08-23 13:37:00,
2013-08-23 09:42:00,66.7,66.2,30.04,NNE,32,0.0,4.0,98,0.00,,,0.00,meteohub,2013-08-23 13:42:00,
2013-08-23 09:47:00,67.3,66.7,30.04,SSW,212,0.0,0.0,98,0.00,,,0.00,meteohub,2013-08-23 13:47:00,
2013-08-23 09:52:00,67.5,66.9,30.04,North,10,0.0,0.0,98,0.00,,,0.00,meteohub,2013-08-23 13:52:00,
2013-08-23 09:57:00,67.6,67.1,30.04,South,190,5.0,0.0,98,0.00,,,0.00,meteohub,2013-08-23 13:57:00,
2013-08-23 10:02:00,67.8,67.3,30.04,South,190,0.0,0.0,98,0.00,,,0.00,meteohub,2013-08-23 14:02:00,
2013-08-23 10:07:00,67.8,67.3,30.04,ESE,122,0.0,5.0,98,0.00,,,0.00,meteohub,2013-08-23 14:07:00,
2013-08-23 10:12:00,68.0,67.5,30.04,ESE,122,0.0,5.0,98,0.00,,,0.00,meteohub,2013-08-23 14:12:00,
2013-08-23 10:17:00,68.2,67.6,30.04,SSW,212,0.0,0.0,98,0.00,,,0.00,meteohub,2013-08-23 14:17:00,
2013-08-23 10:22:00,68.2,67.6,30.04,NNW,348,0.0,4.0,98,0.00,,,0.00,meteohub,2013-08-23 14:22:00,
2013-08-23 10:27:00,68.5,68.0,30.04,NW,325,0.0,4.0,98,0.00,,,0.00,meteohub,2013-08-23 14:27:00,
2013-08-23 10:32:00,68.5,68.0,30.04,NW,325,2.0,4.0,98,0.00,,,0.00,meteohub,2013-08-23 14:32:00,
2013-08-23 10:37:00,68.7,68.2,30.04,NNE,32,0.0,5.0,98,0.00,,,0.00,meteohub,2013-08-23 14:37:00,
2013-08-23 10:42:00,69.1,68.2,30.01,NNW,348,0.0,6.0,97,0.00,,,0.00,meteohub,2013-08-23 14:42:00,
2013-08-23 10:47:00,69.6,68.4,30.01,NNW,348,7.0,7.0,96,0.00,,,0.00,meteohub,2013-08-23 14:47:00,
2013-08-23 10:52:00,69.8,68.4,30.01,NW,325,4.0,8.0,95,0.00,,,0.00,meteohub,2013-08-23 14:52:00,
2013-08-23 10:57:00,70.0,68.5,30.04,NNW,348,4.0,8.0,95,0.00,,,0.00,meteohub,2013-08-23 14:57:00,
2013-08-23 11:02:00,70.2,68.4,30.04,NW,325,6.0,9.0,94,0.00,,,0.00,meteohub,2013-08-23 15:02:00,
2013-08-23 11:07:00,70.0,67.8,30.04,NNW,348,4.0,9.0,93,0.00,,,0.00,meteohub,2013-08-23 15:07:00,
2013-08-23 11:12:00,70.0,67.8,30.04,North,10,6.0,9.0,93,0.00,,,0.00,meteohub,2013-08-23 15:12:00,
2013-08-23 11:17:00,70.0,66.9,30.04,West,280,3.0,13.0,90,0.00,,,0.00,meteohub,2013-08-23 15:17:00,
2013-08-23 11:22:00,70.5,67.8,30.04,SSW,212,4.0,13.0,91,0.00,,,0.00,meteohub,2013-08-23 15:22:00,
2013-08-23 11:27:00,70.9,68.2,30.04,North,10,8.0,13.0,91,0.00,,,0.00,meteohub,2013-08-23 15:27:00,
2013-08-23 11:32:00,71.1,67.6,30.04,North,10,11.0,12.0,89,0.00,,,0.00,meteohub,2013-08-23 15:32:00,
2013-08-23 11:37:00,71.4,67.3,30.04,SE,145,7.0,12.0,87,0.00,,,0.00,meteohub,2013-08-23 15:37:00,
2013-08-23 11:42:00,71.4,67.1,30.04,NW,325,6.0,12.0,86,0.00,,,0.00,meteohub,2013-08-23 15:42:00,
2013-08-23 11:47:00,71.4,66.7,30.04,SW,235,7.0,13.0,85,0.00,,,0.00,meteohub,2013-08-23 15:47:00,
2013-08-23 11:52:00,72.1,67.5,30.04,South,190,3.0,13.0,85,0.00,,,0.00,meteohub,2013-08-23 15:52:00,
2013-08-23 11:57:00,72.3,68.2,30.04,South,190,3.0,13.0,87,0.00,,,0.00,meteohub,2013-08-23 15:57:00,
2013-08-23 12:02:00,72.3,67.6,30.04,WSW,258,5.0,9.0,85,0.00,,,0.00,meteohub,2013-08-23 16:02:00,
2013-08-23 12:07:00,72.5,67.1,30.04,North,10,8.0,9.0,83,0.00,,,0.00,meteohub,2013-08-23 16:07:00,
2013-08-23 12:12:00,73.2,68.2,30.04,North,10,5.0,9.0,84,0.00,,,0.00,meteohub,2013-08-23 16:12:00,
2013-08-23 12:17:00,73.4,66.6,30.04,NNW,348,7.0,8.0,79,0.00,,,0.00,meteohub,2013-08-23 16:17:00,
2013-08-23 12:22:00,73.6,66.4,30.04,North,10,5.0,11.0,78,0.00,,,0.00,meteohub,2013-08-23 16:22:00,
2013-08-23 12:27:00,73.9,67.1,30.04,NW,325,9.0,11.0,79,0.00,,,0.00,meteohub,2013-08-23 16:27:00,
2013-08-23 12:32:00,73.6,65.5,30.04,WNW,302,8.0,20.0,76,0.00,,,0.00,meteohub,2013-08-23 16:32:00,
2013-08-23 12:37:00,74.1,65.7,30.04,NW,325,8.0,20.0,75,0.00,,,0.00,meteohub,2013-08-23 16:37:00,
2013-08-23 12:42:00,74.5,65.7,30.01,WNW,302,5.0,20.0,74,0.00,,,0.00,meteohub,2013-08-23 16:42:00,
2013-08-23 12:47:00,74.1,65.7,30.01,NNW,348,3.0,16.0,75,0.00,,,0.00,meteohub,2013-08-23 16:47:00,
2013-08-23 12:52:00,74.1,65.7,30.01,WNW,302,0.0,16.0,75,0.00,,,0.00,meteohub,2013-08-23 16:52:00,
2013-08-23 12:57:00,73.4,64.6,30.04,NNW,348,4.0,13.0,74,0.00,,,0.00,meteohub,2013-08-23 16:57:00,
2013-08-23 13:07:00,73.0,64.2,30.04,WNW,302,5.0,15.0,74,0.00,,,0.00,meteohub,2013-08-23 17:07:00,
2013-08-23 13:12:00,72.9,65.3,30.04,West,280,0.0,15.0,77,0.00,,,0.00,meteohub,2013-08-23 17:12:00,
2013-08-23 13:17:00,73.0,65.5,30.04,SSE,168,9.0,15.0,77,0.00,,,0.00,meteohub,2013-08-23 17:17:00,
2013-08-23 13:22:00,73.9,65.8,30.04,NNW,348,5.0,9.0,76,0.00,,,0.00,meteohub,2013-08-23 17:22:00,
2013-08-23 13:27:00,73.4,64.2,30.01,North,10,8.0,15.0,73,0.00,,,0.00,meteohub,2013-08-23 17:27:00,
2013-08-23 13:32:00,73.2,64.0,30.01,NW,325,16.0,16.0,73,0.00,,,0.00,meteohub,2013-08-23 17:32:00,
2013-08-23 13:37:00,73.2,63.3,30.01,NW,325,8.0,21.0,71,0.00,,,0.00,meteohub,2013-08-23 17:37:00,
2013-08-23 13:42:00,73.6,62.4,30.04,NW,325,11.0,21.0,68,0.00,,,0.00,meteohub,2013-08-23 17:42:00,
2013-08-23 13:47:00,73.8,63.0,30.04,WNW,302,5.0,21.0,69,0.00,,,0.00,meteohub,2013-08-23 17:47:00,
2013-08-23 13:52:00,73.9,63.5,30.04,WNW,302,5.0,16.0,70,0.00,,,0.00,meteohub,2013-08-23 17:52:00,
2013-08-23 13:57:00,74.3,63.5,30.04,North,10,8.0,16.0,69,0.00,,,0.00,meteohub,2013-08-23 17:57:00,
2013-08-23 14:02:00,74.5,61.9,30.04,North,10,7.0,12.0,65,0.00,,,0.00,meteohub,2013-08-23 18:02:00,
2013-08-23 14:07:00,75.4,63.3,30.04,WNW,302,3.0,12.0,66,0.00,,,0.00,meteohub,2013-08-23 18:07:00,
2013-08-23 14:12:00,75.2,63.1,30.04,NNW,348,13.0,15.0,66,0.00,,,0.00,meteohub,2013-08-23 18:12:00,
2013-08-23 14:17:00,74.5,62.4,30.04,NNE,32,4.0,18.0,66,0.00,,,0.00,meteohub,2013-08-23 18:17:00,
2013-08-23 14:22:00,74.7,61.7,30.04,NNW,348,6.0,21.0,64,0.00,,,0.00,meteohub,2013-08-23 18:22:00,
2013-08-23 14:27:00,75.4,62.8,30.01,South,190,7.0,21.0,65,0.00,,,0.00,meteohub,2013-08-23 18:27:00,
2013-08-23 14:32:00,76.3,63.1,30.01,West,280,6.0,21.0,64,0.00,,,0.00,meteohub,2013-08-23 18:32:00,
2013-08-23 14:37:00,75.6,61.7,30.01,NNW,348,15.0,20.0,62,0.00,,,0.00,meteohub,2013-08-23 18:37:00,
2013-08-23 14:42:00,75.7,62.2,30.01,West,280,6.0,20.0,63,0.00,,,0.00,meteohub,2013-08-23 18:42:00,
2013-08-23 14:47:00,76.5,62.4,30.01,WNW,302,6.0,20.0,62,0.00,,,0.00,meteohub,2013-08-23 18:47:00,
2013-08-23 14:52:00,76.6,60.3,30.01,North,10,10.0,20.0,57,0.00,,,0.00,meteohub,2013-08-23 18:52:00,
2013-08-23 14:57:00,76.6,61.2,29.99,NNW,348,5.0,16.0,59,0.00,,,0.00,meteohub,2013-08-23 18:57:00,
2013-08-23 15:02:00,77.5,61.2,29.99,WNW,302,11.0,15.0,57,0.00,,,0.00,meteohub,2013-08-23 19:02:00,
2013-08-23 15:07:00,77.5,60.6,29.99,NNW,348,5.0,15.0,56,0.00,,,0.00,meteohub,2013-08-23 19:07:00,
2013-08-23 15:12:00,77.9,61.0,30.01,West,280,12.0,25.0,56,0.00,,,0.00,meteohub,2013-08-23 19:12:00,
2013-08-23 15:17:00,77.4,60.4,30.01,SW,235,6.0,25.0,56,0.00,,,0.00,meteohub,2013-08-23 19:17:00,
2013-08-23 15:22:00,78.1,62.6,30.01,NE,55,8.0,25.0,59,0.00,,,0.00,meteohub,2013-08-23 19:22:00,
2013-08-23 15:27:00,78.1,61.2,30.01,NW,325,8.0,18.0,56,0.00,,,0.00,meteohub,2013-08-23 19:27:00,
2013-08-23 15:32:00,78.3,60.8,30.01,WNW,302,6.0,16.0,55,0.00,,,0.00,meteohub,2013-08-23 19:32:00,
2013-08-23 15:37:00,78.3,60.3,30.01,WNW,302,5.0,16.0,54,0.00,,,0.00,meteohub,2013-08-23 19:37:00,
2013-08-23 15:42:00,77.4,58.3,29.99,SSE,168,7.0,15.0,52,0.00,,,0.00,meteohub,2013-08-23 19:42:00,
2013-08-23 15:47:00,77.0,58.6,29.99,NNW,348,13.0,15.0,53,0.00,,,0.00,meteohub,2013-08-23 19:47:00,
2013-08-23 15:52:00,76.6,59.2,29.99,NW,325,2.0,15.0,55,0.00,,,0.00,meteohub,2013-08-23 19:52:00,
2013-08-23 15:57:00,76.5,59.2,30.01,North,10,4.0,13.0,55,0.00,,,0.00,meteohub,2013-08-23 19:57:00,
2013-08-23 16:02:00,76.3,60.4,30.01,NNE,32,0.0,15.0,58,0.00,,,0.00,meteohub,2013-08-23 20:02:00,
2013-08-23 16:07:00,75.9,60.6,30.01,North,10,4.0,15.0,59,0.00,,,0.00,meteohub,2013-08-23 20:07:00,
2013-08-23 16:12:00,75.0,59.7,30.01,NNW,348,11.0,11.0,59,0.00,,,0.00,meteohub,2013-08-23 20:12:00,
2013-08-23 16:17:00,74.8,61.0,30.01,NW,325,3.0,20.0,62,0.00,,,0.00,meteohub,2013-08-23 20:17:00,
2013-08-23 16:22:00,75.0,60.3,30.01,ENE,78,6.0,20.0,60,0.00,,,0.00,meteohub,2013-08-23 20:22:00,
2013-08-23 16:27:00,74.7,60.3,30.01,North,10,3.0,20.0,61,0.00,,,0.00,meteohub,2013-08-23 20:27:00,
2013-08-23 16:32:00,74.8,58.1,30.01,West,280,8.0,15.0,56,0.00,,,0.00,meteohub,2013-08-23 20:32:00,
2013-08-23 16:37:00,74.7,57.4,30.01,WNW,302,10.0,17.0,55,0.00,,,0.00,meteohub,2013-08-23 20:37:00,
2013-08-23 16:42:00,74.8,58.1,30.04,SSW,212,2.0,17.0,56,0.00,,,0.00,meteohub,2013-08-23 20:42:00,
2013-08-23 16:47:00,75.6,59.7,30.04,NNW,348,7.0,16.0,58,0.00,,,0.00,meteohub,2013-08-23 20:47:00,
2013-08-23 16:52:00,75.7,59.4,30.04,North,10,8.0,16.0,57,0.00,,,0.00,meteohub,2013-08-23 20:52:00,
2013-08-23 16:57:00,75.7,60.8,30.04,SW,235,2.0,10.0,60,0.00,,,0.00,meteohub,2013-08-23 20:57:00,
2013-08-23 17:02:00,75.7,61.9,29.99,WNW,302,3.0,10.0,62,0.00,,,0.00,meteohub,2013-08-23 21:02:00,
2013-08-23 17:07:00,75.6,61.2,29.99,NNW,348,6.0,14.0,61,0.00,,,0.00,meteohub,2013-08-23 21:07:00,
2013-08-23 17:12:00,75.4,61.5,30.01,SE,145,0.0,14.0,62,0.00,,,0.00,meteohub,2013-08-23 21:12:00,
2013-08-23 17:17:00,75.4,59.5,30.01,SSW,212,3.0,14.0,58,0.00,,,0.00,meteohub,2013-08-23 21:17:00,
2013-08-23 17:22:00,75.2,60.8,30.01,ENE,78,4.0,12.0,61,0.00,,,0.00,meteohub,2013-08-23 21:22:00,
2013-08-23 17:27:00,74.8,61.0,30.04,South,190,4.0,12.0,62,0.00,,,0.00,meteohub,2013-08-23 21:27:00,
2013-08-23 17:32:00,74.1,59.4,30.04,NW,325,11.0,13.0,60,0.00,,,0.00,meteohub,2013-08-23 21:32:00,
2013-08-23 17:37:00,73.6,59.4,30.04,North,10,0.0,13.0,61,0.00,,,0.00,meteohub,2013-08-23 21:37:00,
2013-08-23 17:42:00,73.2,59.0,30.04,ENE,78,2.0,11.0,61,0.00,,,0.00,meteohub,2013-08-23 21:42:00,
2013-08-23 17:47:00,72.9,59.0,30.04,SE,145,3.0,11.0,62,0.00,,,0.00,meteohub,2013-08-23 21:47:00,
2013-08-23 17:52:00,72.3,58.1,30.04,ESE,122,3.0,6.0,61,0.00,,,0.00,meteohub,2013-08-23 21:52:00,
2013-08-23 17:57:00,72.1,57.9,30.04,SSE,168,0.0,9.0,61,0.00,,,0.00,meteohub,2013-08-23 21:57:00,
2013-08-23 18:02:00,72.0,58.6,30.04,South,190,0.0,9.0,63,0.00,,,0.00,meteohub,2013-08-23 22:02:00,
2013-08-23 18:07:00,71.6,57.9,30.04,ENE,78,8.0,9.0,62,0.00,,,0.00,meteohub,2013-08-23 22:07:00,
2013-08-23 18:12:00,71.8,58.1,30.04,ENE,78,4.0,10.0,62,0.00,,,0.00,meteohub,2013-08-23 22:12:00,
2013-08-23 18:17:00,72.0,58.3,30.04,NE,55,7.0,10.0,62,0.00,,,0.00,meteohub,2013-08-23 22:17:00,
2013-08-23 18:22:00,71.8,58.1,30.04,ENE,78,3.0,10.0,62,0.00,,,0.00,meteohub,2013-08-23 22:22:00,
2013-08-23 18:27:00,71.8,58.1,30.04,WNW,302,5.0,9.0,62,0.00,,,0.00,meteohub,2013-08-23 22:27:00,
2013-08-23 18:32:00,71.4,58.1,30.04,WSW,258,3.0,12.0,63,0.00,,,0.00,meteohub,2013-08-23 22:32:00,
2013-08-23 18:37:00,71.2,58.5,30.04,ENE,78,4.0,12.0,64,0.00,,,0.00,meteohub,2013-08-23 22:37:00,
2013-08-23 18:42:00,71.2,58.5,30.04,ESE,122,3.0,12.0,64,0.00,,,0.00,meteohub,2013-08-23 22:42:00,
2013-08-23 18:47:00,71.1,59.2,30.04,ESE,122,0.0,6.0,66,0.00,,,0.00,meteohub,2013-08-23 22:47:00,
2013-08-23 18:52:00,70.9,58.5,30.04,East,100,3.0,4.0,65,0.00,,,0.00,meteohub,2013-08-23 22:52:00,
2013-08-23 18:57:00,70.7,58.8,30.04,ESE,122,0.0,4.0,66,0.00,,,0.00,meteohub,2013-08-23 22:57:00,
2013-08-23 19:02:00,70.5,58.6,30.04,SE,145,0.0,4.0,66,0.00,,,0.00,meteohub,2013-08-23 23:02:00,
2013-08-23 19:07:00,70.5,59.0,30.04,SE,145,0.0,4.0,67,0.00,,,0.00,meteohub,2013-08-23 23:07:00,
2013-08-23 19:12:00,70.3,59.4,30.04,SE,145,3.0,5.0,68,0.00,,,0.00,meteohub,2013-08-23 23:12:00,
2013-08-23 19:17:00,70.2,58.6,30.04,NNE,32,5.0,5.0,67,0.00,,,0.00,meteohub,2013-08-23 23:17:00,
2013-08-23 19:22:00,70.2,58.6,30.04,East,100,3.0,6.0,67,0.00,,,0.00,meteohub,2013-08-23 23:22:00,
2013-08-23 19:27:00,70.0,59.0,30.04,South,190,0.0,6.0,68,0.00,,,0.00,meteohub,2013-08-23 23:27:00,
2013-08-23 19:32:00,69.8,59.2,30.04,SSE,168,2.0,6.0,69,0.00,,,0.00,meteohub,2013-08-23 23:32:00,
2013-08-23 19:37:00,69.8,59.2,30.04,SE,145,0.0,4.0,69,0.00,,,0.00,meteohub,2013-08-23 23:37:00,
2013-08-23 19:42:00,69.8,59.2,30.04,SE,145,0.0,4.0,69,0.00,,,0.00,meteohub,2013-08-23 23:42:00,
2013-08-23 19:47:00,69.3,59.0,30.04,SE,145,4.0,5.0,70,0.00,,,0.00,meteohub,2013-08-23 23:47:00,
2013-08-23 19:52:00,69.3,59.0,30.04,SSE,168,0.0,5.0,70,0.00,,,0.00,meteohub,2013-08-23 23:52:00,
2013-08-23 20:02:00,68.9,58.3,30.07,ENE,78,0.0,4.0,69,0.00,,,0.00,meteohub,2013-08-24 00:02:00,
2013-08-23 20:12:00,68.4,57.7,30.07,WSW,258,5.0,7.0,69,0.00,,,0.00,meteohub,2013-08-24 00:12:00,
2013-08-23 20:17:00,68.2,57.6,30.07,East,100,5.0,9.0,69,0.00,,,0.00,meteohub,2013-08-24 00:17:00,
2013-08-23 20:22:00,68.2,57.6,30.07,East,100,4.0,9.0,69,0.00,,,0.00,meteohub,2013-08-24 00:22:00,
2013-08-23 20:27:00,67.6,57.6,30.07,NE,55,5.0,8.0,70,0.00,,,0.00,meteohub,2013-08-24 00:27:00,
2013-08-23 20:32:00,67.6,57.2,30.07,East,100,6.0,8.0,69,0.00,,,0.00,meteohub,2013-08-24 00:32:00,
2013-08-23 20:37:00,67.5,57.0,30.07,WNW,302,0.0,7.0,69,0.00,,,0.00,meteohub,2013-08-24 00:37:00,
2013-08-23 20:42:00,67.3,57.2,30.07,NNW,348,4.0,7.0,70,0.00,,,0.00,meteohub,2013-08-24 00:42:00,
2013-08-23 20:47:00,67.1,57.4,30.10,WNW,302,0.0,7.0,71,0.00,,,0.00,meteohub,2013-08-24 00:47:00,
2013-08-23 20:52:00,66.9,57.2,30.10,NNE,32,0.0,4.0,71,0.00,,,0.00,meteohub,2013-08-24 00:52:00,
2013-08-23 20:57:00,66.6,56.8,30.13,ENE,78,0.0,4.0,71,0.00,,,0.00,meteohub,2013-08-24 00:57:00,
2013-08-23 21:02:00,66.2,56.8,30.13,South,190,0.0,4.0,72,0.00,,,0.00,meteohub,2013-08-24 01:02:00,
2013-08-23 21:07:00,66.0,57.2,30.13,ESE,122,0.0,0.0,73,0.00,,,0.00,meteohub,2013-08-24 01:07:00,
2013-08-23 21:12:00,66.0,57.2,30.07,SSE,168,0.0,0.0,73,0.00,,,0.00,meteohub,2013-08-24 01:12:00,
2013-08-23 21:17:00,65.7,56.8,30.07,SSE,168,0.0,0.0,73,0.00,,,0.00,meteohub,2013-08-24 01:17:00,
2013-08-23 21:22:00,65.7,57.2,30.07,SSE,168,0.0,0.0,74,0.00,,,0.00,meteohub,2013-08-24 01:22:00,
2013-08-23 21:27:00,65.7,57.2,30.10,SE,145,4.0,0.0,74,0.00,,,0.00,meteohub,2013-08-24 01:27:00,
2013-08-23 21:32:00,65.5,57.0,30.10,SE,145,0.0,5.0,74,0.00,,,0.00,meteohub,2013-08-24 01:32:00,
2013-08-23 21:37:00,64.9,56.5,30.10,SSE,168,0.0,5.0,74,0.00,,,0.00,meteohub,2013-08-24 01:37:00,
2013-08-23 21:42:00,64.8,56.3,30.10,ENE,78,0.0,5.0,74,0.00,,,0.00,meteohub,2013-08-24 01:42:00,
2013-08-23 21:47:00,64.6,56.5,30.10,ESE,122,0.0,3.0,75,0.00,,,0.00,meteohub,2013-08-24 01:47:00,
2013-08-23 21:52:00,64.2,56.5,30.10,ESE,122,0.0,3.0,76,0.00,,,0.00,meteohub,2013-08-24 01:52:00,
2013-08-23 21:57:00,64.2,56.5,30.13,ESE,122,0.0,3.0,76,0.00,,,0.00,meteohub,2013-08-24 01:57:00,
2013-08-23 22:02:00,64.0,56.7,30.13,East,100,0.0,4.0,77,0.00,,,0.00,meteohub,2013-08-24 02:02:00,
2013-08-23 22:07:00,63.9,56.5,30.13,SSE,168,2.0,4.0,77,0.00,,,0.00,meteohub,2013-08-24 02:07:00,
2013-08-23 22:12:00,63.9,56.5,30.13,ESE,122,0.0,3.0,77,0.00,,,0.00,meteohub,2013-08-24 02:12:00,
2013-08-23 22:17:00,63.5,56.1,30.13,ESE,122,0.0,3.0,77,0.00,,,0.00,meteohub,2013-08-24 02:17:00,
2013-08-23 22:22:00,63.1,56.1,30.13,ESE,122,0.0,3.0,78,0.00,,,0.00,meteohub,2013-08-24 02:22:00,
2013-08-23 22:27:00,63.1,56.1,30.13,ESE,122,0.0,0.0,78,0.00,,,0.00,meteohub,2013-08-24 02:27:00,
2013-08-23 22:32:00,63.0,55.9,30.13,SE,145,0.0,0.0,78,0.00,,,0.00,meteohub,2013-08-24 02:32:00,
2013-08-23 22:37:00,62.8,55.8,30.13,SE,145,0.0,0.0,78,0.00,,,0.00,meteohub,2013-08-24 02:37:00,
2013-08-23 22:42:00,62.6,55.9,30.13,SE,145,0.0,0.0,79,0.00,,,0.00,meteohub,2013-08-24 02:42:00,
2013-08-23 22:47:00,62.4,55.8,30.13,South,190,0.0,0.0,79,0.00,,,0.00,meteohub,2013-08-24 02:47:00,
2013-08-23 22:52:00,62.2,55.9,30.13,South,190,0.0,0.0,80,0.00,,,0.00,meteohub,2013-08-24 02:52:00,
2013-08-23 22:57:00,62.1,55.8,30.13,SE,145,0.0,0.0,80,0.00,,,0.00,meteohub,2013-08-24 02:57:00,
2013-08-23 23:02:00,61.9,55.6,30.13,ESE,122,0.0,0.0,80,0.00,,,0.00,meteohub,2013-08-24 03:02:00,
2013-08-23 23:07:00,61.9,55.6,30.13,East,100,0.0,0.0,80,0.00,,,0.00,meteohub,2013-08-24 03:07:00,
2013-08-23 23:12:00,61.7,55.4,30.16,SSE,168,0.0,0.0,80,0.00,,,0.00,meteohub,2013-08-24 03:12:00,
2013-08-23 23:17:00,61.5,55.6,30.16,SSE,168,0.0,0.0,81,0.00,,,0.00,meteohub,2013-08-24 03:17:00,
2013-08-23 23:22:00,61.3,55.4,30.16,SSW,212,0.0,0.0,81,0.00,,,0.00,meteohub,2013-08-24 03:22:00,
2013-08-23 23:27:00,61.2,55.2,30.13,SSW,212,0.0,0.0,81,0.00,,,0.00,meteohub,2013-08-24 03:27:00,
2013-08-23 23:32:00,61.0,55.0,30.13,SSW,212,0.0,0.0,81,0.00,,,0.00,meteohub,2013-08-24 03:32:00,
2013-08-23 23:37:00,61.0,55.0,30.13,SSW,212,0.0,0.0,81,0.00,,,0.00,meteohub,2013-08-24 03:37:00,
2013-08-23 23:42:00,60.8,54.9,30.13,SE,145,0.0,0.0,81,0.00,,,0.00,meteohub,2013-08-24 03:42:00,
2013-08-23 23:47:00,60.8,55.2,30.16,East,100,0.0,0.0,82,0.00,,,0.00,meteohub,2013-08-24 03:47:00,
2013-08-23 23:52:00,60.6,55.0,30.16,South,190,0.0,0.0,82,0.00,,,0.00,meteohub,2013-08-24 03:52:00,
2013-08-23 23:57:00,60.4,54.9,30.16,SSE,168,0.0,0.0,82,0.00,,,0.00,meteohub,2013-08-24 03:57:00,